Regional Weather Roundup
Issued by NWS

Home | Current Version | Previous Version | Graphics & Text | Print | Product List | Glossary On
Versions: 1 2 3 4 5 6 7 8 9 10 11 12 13 14 15 16 17 18 19 20 21 22 23 24 25 26 27 28 29 30 31 32 33 34 35 36 37 38 39 40 41 42 43 44 45 46 47 48 49 50
000
ASUS43 KMKX 260900
RWRWI

WISCONSIN REGIONAL WEATHER ROUNDUP
NATIONAL WEATHER SERVICE MILWAUKEE/SULLIVAN WI
300 AM CST SUN FEB 26 2017

NOTE: "FAIR" INDICATES FEW OR NO CLOUDS BELOW 12,000 FEET WITH NO
SIGNIFICANT WEATHER AND/OR OBSTRUCTIONS TO VISIBILITY.

WIZ001-002-006>008-014>016-023>028-261000-
NORTHWEST WISCONSIN

CITY           SKY/WX    TMP DP  RH WIND       PRES   REMARKS
SUPERIOR ARPT  LGT SNOW  27  26  96 SW7       29.69F WCI  19
ASHLAND        LGT SNOW  25  20  81 SW16G22   29.70F WCI  12
HAYWARD        LGT SNOW  23  15  71 S12       29.71F WCI  12
SIREN          CLOUDY    25  17  70 SW7       29.72F WCI  17
CUMBERLAND     MOCLDY    23  14  68 SW14      29.73F WCI  11
RICE LAKE      PTCLDY    22  15  74 S9        29.77F WCI  12
CHETEK         CLOUDY    21  15  77 S5        29.77F WCI  15
LADYSMITH      CLOUDY    21  15  78 S8        29.78F WCI  11
EAU CLAIRE     NOT AVBL
MENOMONIE      CLOUDY    24  17  74 S10       29.79F WCI  13
NEW RICHMOND   CLOUDY    23  15  69 S8G16     29.75F WCI  14
OSCEOLA        CLOUDY    26  17  71 S8        29.77F WCI  17
$$

WIZ003>005-009-010-017-018-261000-
NORTH CENTRAL WISCONSIN

CITY           SKY/WX    TMP DP  RH WIND       PRES   REMARKS
MANITOWISH WTR CLOUDY    19  13  79 SW10      29.71F WCI   7
ARBOR VITAE    CLOUDY    19  13  77 SW8         N/A  WCI   9
WOODRUFF       CLOUDY    19  13  77 SW8         N/A  WCI   9
RHINELANDER    CLOUDY    18  12  77 SW8       29.76F WCI   8
EAGLE RIVER    CLOUDY    18  11  75 S6        29.74F WCI   9
LAND O LAKES   CLOUDY    18  14  84 SW3       29.74F
PHILLIPS       CLOUDY    18  12  78 SW9       29.75F WCI   7
TOMAHAWK       CLOUDY    18  11  73 S3        29.79S
MEDFORD        LGT SNOW  18  13  80 S10       29.79F WCI   6
MERRILL        NOT AVBL
$$

WIZ029-030-035-036-043>047-261000-
CENTRAL WISCONSIN

CITY           SKY/WX    TMP DP  RH WIND       PRES   REMARKS
WAUSAU         CLOUDY    19  13  77 SW8       29.81F WCI   9
MOSINEE        MOCLDY    19  16  86 SW8       29.85F WCI   9
MARSHFIELD     LGT SNOW  19  13  77 S6        29.81F WCI  11
STEVENS POINT  CLOUDY    17  13  87 S5        29.87F WCI  10
WAUPACA        LGT SNOW  21  16  79 S6        29.91F WCI  14
WAUTOMA        CLOUDY    19  14  81 S6        29.91F WCI  11
WISC RAPIDS    CLOUDY    21  14  74 S8        29.87F WCI  11
CAMP DOUGLAS   NOT AVBL
$$

WIZ011>013-019>022-031-037>040-048>050-261000-
NORTHEAST WISCONSIN

CITY           SKY/WX    TMP DP  RH WIND       PRES   REMARKS
ANTIGO         CLOUDY    17  13  85 SW13G20   29.81F WCI   3
SHAWANO        CLOUDY    19  13  74 SW5       29.89S WCI  13
OCONTO         CLOUDY    19  11  72 SW7       29.90S WCI   9
STURGEON BAY   CLOUDY    19  13  77 SW10      29.90S WCI   7
GREEN BAY      CLOUDY    20  15  81 SW10      29.92S WCI   9
MANITOWOC      NOT AVBL
APPLETON       CLOUDY    19  12  73 SW9       29.90S WCI   9
CLINTONVILLE   CLOUDY    19  12  73 SW5       29.90S WCI  13
OSHKOSH        FLURRIES  20  13  74 SW8       29.93S WCI  10
$$

WIZ032>034-041-042-053>061-261000-
SOUTHWEST WISCONSIN

CITY           SKY/WX    TMP DP  RH WIND       PRES   REMARKS
LA CROSSE      CLOUDY    28  18  66 S10       29.86F WCI  19
SPARTA         CLOUDY    24  17  73 CALM      29.88F
VIROQUA        CLOUDY    23  17  80 S8        29.86F WCI  13
BOSCOBEL       CLOUDY    27  18  69 SW5       29.91F WCI  22
PRAIRIE DU CHI CLOUDY    28  17  65 SE3       29.91F
PLATTEVILLE    PTCLDY    25  21  85 S8        29.94S WCI  16
$$

WIZ056-057-062-063-064-067-068-261000-
SOUTH CENTRAL WISCONSIN

CITY           SKY/WX    TMP DP  RH WIND       PRES   REMARKS
REEDSBURG      CLOUDY    21  16  79 S3        29.91F
BARABOO/DELLS  CLOUDY    21  15  77 S7        29.90F WCI  13
LONE ROCK      NOT AVBL
MINERAL POINT  CLOUDY    25  21  86 S3        29.91F
MADISON        CLOUDY    22  16  78 S7        29.93F WCI  13
MIDDLETON      CLOUDY    24  18  80 S3        29.94F
WATERTOWN      CLOUDY    20  16  84 SW5       29.97S WCI  14
MONROE         CLOUDY    25  19  80 S12       29.94F WCI  14
JANESVILLE     CLOUDY    27  19  74 S6        29.98F WCI  20
$$

WIZ051-052-058>065-066-070>072-261000-
SOUTHEAST WISCONSIN

CITY           SKY/WX    TMP DP  RH WIND       PRES   REMARKS
MILWAUKEE      MOCLDY    23  14  68 SW6       29.99S WCI  16
WAUKESHA       CLOUDY    19  12  73 SW5       29.98F WCI  13
MILWAUKEE/TIMM CLOUDY    21  12  68 SW7       29.99F WCI  13
RACINE         CLOUDY    22  15  75 SW8       30.01F WCI  12
KENOSHA        CLOUDY    23  16  74 SW8       30.00S WCI  14
FOND DU LAC    CLOUDY    20  13  74 SW9       29.94F WCI   9
SHEBOYGAN      CLOUDY    19  13  77 SW5       29.94S WCI  12
WEST BEND      CLOUDY    21  16  79 SW5       29.95F WCI  15
JUNEAU         CLOUDY    19  15  84 S5        29.96F WCI  12
$$

LSZ147-162-261000-
LAKE SUPERIOR

STATION/POSITION TIME  TEMP    WIND        PRES    WAVE
                       AIR SEA DIR/SP/G            HT/PER
                 (UTC) (F)     (DEG/KT/KT) (MB)    (FT/S)
DEVILS ISLAND    0800   27     190/  8/ 10 1006.7F
PORT WING        0840   26     200/  8/ 13 1005.8F
SAXON HARBOR     0840   27     200/ 13/ 17 1006.1F
$$

LMZ867-665-643>646-261000-
LAKE MICHIGAN

STATION/POSITION TIME  TEMP    WIND        PRES    WAVE
                       AIR SEA DIR/SP/G            HT/PER
                 (UTC) (F)     (DEG/KT/KT) (MB)    (FT/S)
NORTHPORT PIER   0840   22        CALM     1011.9S
SISTER BAY       0750   22        CALM       N/A
KEWAUNEE LAKESHO 0830   20     310/ 10/ 13 1012.6F
SHEBOYGAN LAKESH 0800   21     240/ 12/ 13 1015.1F
PORT WASHINGTON  0830   22     250/  8/ 12 1015.9S
MILWAUKEE LAKESH 0830   23     240/ 11/ 13   N/A
KENOSHA   LAKESH 0800   23     230/  4/  8 1016.6
$$

TC  - TEMPERATURE IN CELSIUS
VSB - VISIBILITY IN STATUTE MILES
WCI - WIND CHILL INDEX
HX  - HEAT INDEX




USA.gov is the U.S. government's official web portal to all federal, state and local government web resources and services.